FW2103 Weather Reports


time (UTC)temp
F
wind
direction
speed
knots
gust
knots
rain 1hr
in
rain 24hr
in
rain mn
in
humidity
%
barometer
mb
20260903011320 81 73 0.0 0.0 0.00 0.00 0.00 82 1017.0
20260903010816 81 73 0.0 0.0 0.00 0.00 0.00 81 1017.1
20260903010312 81 73 0.0 0.0 0.00 0.00 0.00 81 1017.0
20260903005810 81 73 0.0 0.0 0.00 0.00 0.00 81 1017.0
20260903005306 81 73 0.0 0.0 0.00 0.00 0.00 81 1017.0
20260903004801 82 73 0.0 0.0 0.00 0.00 0.00 82 1016.8
20260903004256 82 73 0.0 0.0 0.00 0.00 0.00 82 1017.0
20260903003751 82 73 0.0 0.0 0.00 0.00 0.00 80 1016.8
20260903003246 82 73 0.0 0.0 0.00 0.00 0.00 80 1016.9
20260903002741 82 73 0.0 0.0 0.00 0.00 0.00 80 1016.8
20260903002235 83 73 0.0 0.0 0.00 0.00 0.00 80 1016.8
20260903001731 83 73 0.0 0.0 0.00 0.00 0.00 80 1017.1
20260903001230 84 73 0.0 0.0 0.00 0.00 0.00 80 1016.7
20260903000726 84 73 0.0 0.0 0.00 0.00 0.00 79 1017.0
20260903000226 85 73 0.0 0.0 0.00 0.00 0.00 78 1016.7
20260902235724 85 73 0.0 0.0 0.00 0.00 0.00 77 1017.0
20260902235219 86 73 0.0 0.0 0.00 0.00 0.00 75 1017.0
20260902234719 86 73 0.0 0.0 0.00 0.00 0.00 74 1017.0
20260902234218 87 73 0.0 0.0 0.00 0.00 0.00 74 1016.9
20260902233717 87 73 0.0 0.0 0.00 0.00 0.00 74 1016.8
20260902233212 87 74 0.0 0.0 0.00 0.00 0.00 73 1017.1
20260902232711 88 73 0.0 0.0 0.00 0.00 0.00 73 1017.1
20260902232205 88 74 0.0 0.0 0.00 0.00 0.00 71 1017.2
20260902231659 89 63 0.0 0.0 0.00 0.00 0.00 70 1017.1
20260902231154 89 81 0.0 0.0 0.00 0.00 0.00 68 1017.1
20260902230649 89 68 0.0 0.0 0.00 0.00 0.00 68 1016.9
20260902230148 89 97 0.0 0.0 0.00 0.00 0.00 67 1017.4
20260902225643 90 77 0.0 0.0 0.00 0.00 0.00 67 1017.1
20260902225142 90 86 0.0 0.0 0.00 0.00 0.00 65 1017.1
20260902224641 91 75 0.0 0.0 0.00 0.00 0.00 64 1017.2
20260902224137 92 112 0.0 0.0 0.00 0.00 0.00 62 1017.0
20260902223633 92 100 0.0 0.0 0.00 0.00 0.00 60 1017.1
20260902223132 92 82 0.0 0.0 0.00 0.00 0.00 60 1017.3
20260902222632 92 67 0.0 0.0 0.00 0.00 0.00 59 1017.2
20260902222131 93 142 0.0 0.0 0.00 0.00 0.00 59 1017.1
20260902221631 93 35 0.0 0.0 0.00 0.00 0.00 58 1017.1
20260902221126 93 37 0.0 0.0 0.00 0.00 0.00 58 1017.4
20260902220621 93 166 0.0 0.0 0.00 0.00 0.00 59 1017.2
20260902220115 94 140 0.0 0.0 0.00 0.00 0.00 58 1017.4
20260902215606 94 51 0.0 0.0 0.00 0.00 0.00 56 1017.5
20260902215055 94 76 0.0 0.0 0.00 0.00 0.00 57 1017.3
20260902214556 94 33 0.0 0.0 0.00 0.00 0.00 55 1017.3
20260902214055 94 90 0.0 0.0 0.00 0.00 0.00 57 1017.3
20260902213551 93 47 0.0 0.0 0.00 0.00 0.00 57 1017.2
20260902213050 93 137 0.0 0.0 0.00 0.00 0.00 59 1017.2
20260902212545 96 101 0.0 0.0 0.00 0.00 0.00 56 1017.3
20260902212042 96 39 0.0 0.0 0.00 0.00 0.00 53 1017.3
20260902211537 95 235 0.9 0.9 0.00 0.00 0.00 55 1017.5
20260902211032 95 36 0.0 0.0 0.00 0.00 0.00 55 1017.5
20260902210531 96 61 0.9 0.9 0.00 0.00 0.00 57 1017.5
20260902210026 96 38 0.0 0.0 0.00 0.00 0.00 54 1017.6
20260902205520 96 36 0.0 0.0 0.00 0.00 0.00 55 1017.5
20260902205016 95 357 0.9 1.7 0.00 0.00 0.00 53 1017.6
20260902204515 96 351 0.0 0.9 0.00 0.00 0.00 53 1017.5
20260902204011 97 59 0.0 0.0 0.00 0.00 0.00 54 1017.5
20260902203506 96 347 0.9 1.7 0.00 0.00 0.00 54 1017.4
20260902203005 97 92 0.0 0.0 0.00 0.00 0.00 53 1017.5
20260902202501 95 74 0.0 0.0 0.00 0.00 0.00 54 1017.5
20260902201957 95 83 0.0 0.0 0.00 0.00 0.00 55 1017.6
20260902201457 94 82 0.0 0.0 0.00 0.00 0.00 57 1017.8
20260902200952 93 64 0.0 0.0 0.00 0.00 0.00 55 1017.8
20260902200447 94 90 0.9 0.9 0.00 0.00 0.00 57 1017.9
20260902195942 93 166 0.9 1.7 0.00 0.00 0.00 56 1017.9
20260902195438 94 114 1.7 1.7 0.00 0.00 0.00 56 1018.0
20260902194932 95 9 0.0 0.0 0.00 0.00 0.00 55 1018.3
20260902194431 96 4 0.9 0.9 0.00 0.00 0.00 53 1018.2
20260902193927 96 46 0.0 0.0 0.00 0.00 0.00 54 1018.2
20260902193423 95 349 0.9 0.9 0.00 0.00 0.00 55 1017.9
20260902192921 96 47 0.0 0.0 0.00 0.00 0.00 55 1018.1
20260902192420 97 7 0.0 0.0 0.00 0.00 0.00 56 1018.1
20260902191919 95 80 0.0 0.0 0.00 0.00 0.00 54 1018.1
20260902191415 94 40 0.0 0.0 0.00 0.00 0.00 58 1018.4
20260902190910 95 76 0.0 0.0 0.00 0.00 0.00 55 1018.3
20260902190405 94 334 1.7 1.7 0.00 0.00 0.00 54 1018.6
20260902185901 95 306 0.9 1.7 0.00 0.00 0.00 54 1018.5
20260902185356 95 130 0.0 0.0 0.00 0.00 0.00 55 1018.4
20260902184851 95 272 0.9 0.9 0.00 0.00 0.00 55 1018.6
20260902184347 95 56 0.0 0.0 0.00 0.00 0.00 59 1018.5
20260902183842 95 318 0.9 0.9 0.00 0.00 0.00 55 1018.6
20260902183339 95 178 0.0 0.0 0.00 0.00 0.00 54 1018.6
20260902182834 95 351 1.7 1.7 0.00 0.00 0.00 55 1018.8
20260902182330 95 7 1.7 1.7 0.00 0.00 0.00 55 1018.7
20260902181826 94 0 0.9 1.7 0.00 0.00 0.00 55 1018.9
20260902181322 95 118 0.9 1.7 0.00 0.00 0.00 57 1018.7
20260902180821 93 308 0.9 1.7 0.00 0.00 0.00 56 1018.8
20260902180317 93 137 0.0 0.0 0.00 0.00 0.00 58 1018.9
20260902175813 93 186 0.0 0.0 0.00 0.00 0.00 58 1018.6
20260902175308 94 176 2.6 2.6 0.00 0.00 0.00 61 1018.9
20260902174803 93 161 0.0 0.0 0.00 0.00 0.00 60 1018.7
20260902174300 94 337 1.7 2.6 0.00 0.00 0.00 57 1019.0
20260902173755 93 40 0.0 0.0 0.00 0.00 0.00 60 1019.1
20260902173249 93 317 0.0 0.9 0.00 0.00 0.00 59 1019.0
20260902172744 94 67 0.9 1.7 0.00 0.00 0.00 57 1019.0
20260902172244 94 174 0.0 0.0 0.00 0.00 0.00 59 1019.1
20260902171738 93 22 0.9 0.9 0.00 0.00 0.00 61 1019.3
20260902171233 92 33 0.0 0.0 0.00 0.00 0.00 65 1019.1
20260902170730 92 185 1.7 1.7 0.00 0.00 0.00 64 1019.5
20260902170225 92 30 0.9 0.9 0.00 0.00 0.00 64 1019.5
20260902165721 91 351 0.9 0.9 0.00 0.00 0.00 63 1019.1
20260902165214 91 125 0.0 0.0 0.00 0.00 0.00 63 1019.4
20260902164714 91 83 0.0 0.0 0.00 0.00 0.00 66 1019.4
20260902164209 91 166 0.0 0.0 0.00 0.00 0.00 65 1019.7
20260902163704 91 329 0.9 1.7 0.00 0.00 0.00 63 1019.6
20260902163203 90 149 0.0 0.0 0.00 0.00 0.00 65 1019.8
20260902162702 90 358 0.0 0.9 0.00 0.00 0.00 66 1019.8
20260902162157 91 302 2.6 2.6 0.00 0.00 0.00 64 1020.0
20260902161652 90 14 0.0 0.0 0.00 0.00 0.00 67 1019.8
20260902161147 90 121 0.0 0.0 0.00 0.00 0.00 68 1020.0
20260902160643 90 38 0.0 0.0 0.00 0.00 0.00 68 1020.0
20260902160138 90 343 1.7 1.7 0.00 0.00 0.00 68 1020.2
20260902155637 89 343 1.7 1.7 0.00 0.00 0.00 69 1020.1
20260902155136 89 26 0.0 0.9 0.00 0.00 0.00 67 1019.9
20260902154631 89 353 0.9 0.9 0.00 0.00 0.00 67 1020.1
20260902154126 89 17 2.6 2.6 0.00 0.00 0.00 68 1020.0
20260902153625 89 21 1.7 2.6 0.00 0.00 0.00 68 1020.1
20260902153120 89 38 0.0 0.0 0.00 0.00 0.00 69 1020.0
20260902152616 89 322 0.0 0.9 0.00 0.00 0.00 69 1019.9
20260902152112 89 10 0.0 0.0 0.00 0.00 0.00 71 1019.9
20260902151608 88 49 0.9 0.9 0.00 0.00 0.00 74 1019.9
20260902151107 87 61 0.0 0.0 0.00 0.00 0.00 73 1020.0
20260902150601 86 20 0.0 0.0 0.00 0.00 0.00 74 1020.0
20260902150058 86 197 0.0 0.0 0.00 0.00 0.00 74 1020.0
20260902145552 86 356 2.6 2.6 0.00 0.00 0.00 75 1020.0
20260902145051 85 41 0.0 0.0 0.00 0.00 0.00 75 1020.2
20260902144548 85 57 0.0 0.0 0.00 0.00 0.00 77 1020.0
20260902144043 84 349 0.9 0.9 0.00 0.00 0.00 77 1019.9
20260902143538 84 347 2.6 4.3 0.00 0.00 0.00 78 1019.9
20260902143034 83 41 0.0 0.0 0.00 0.00 0.00 81 1020.0
20260902142529 82 299 0.9 0.9 0.00 0.00 0.00 81 1020.1
20260902142025 82 0 0.9 1.7 0.00 0.00 0.00 82 1020.0
20260902141524 82 16 0.0 0.9 0.00 0.00 0.00 84 1020.1
20260902141019 81 193 0.0 0.0 0.00 0.00 0.00 84 1019.9
20260902140514 81 77 0.0 0.0 0.00 0.00 0.00 85 1019.7
20260902140010 80 79 0.0 0.0 0.00 0.00 0.00 86 1019.8
20260902135503 80 78 0.0 0.0 0.00 0.00 0.00 86 1019.9
20260902135004 79 83 0.0 0.0 0.00 0.00 0.00 87 1019.7
20260902134459 79 102 0.0 0.0 0.00 0.00 0.00 86 1019.8
20260902133954 79 74 0.0 0.0 0.00 0.00 0.00 87 1019.9
20260902133449 78 91 0.0 0.0 0.00 0.00 0.00 87 1019.9
20260902132943 78 92 0.0 0.0 0.00 0.00 0.00 87 1019.8
20260902132439 78 109 0.0 0.0 0.00 0.00 0.00 88 1020.1
20260902131933 77 101 0.0 0.0 0.00 0.00 0.00 89 1020.0
20260902131430 77 119 0.0 0.0 0.00 0.00 0.00 90 1020.0
20260902130929 77 117 0.0 0.0 0.00 0.00 0.00 89 1020.0
20260902130425 76 118 0.0 0.0 0.00 0.00 0.00 90 1020.0
20260902125920 76 122 0.0 0.0 0.00 0.00 0.00 90 1019.8
20260902125416 76 87 0.0 0.0 0.00 0.00 0.00 91 1019.8
20260902124912 75 88 0.0 0.0 0.00 0.00 0.00 91 1019.6
20260902124408 75 56 0.0 0.0 0.00 0.00 0.00 92 1019.7
20260902123903 75 74 0.0 0.0 0.00 0.00 0.00 92 1019.5
20260902123359 74 74 0.0 0.0 0.00 0.00 0.00 92 1019.5
20260902122857 74 78 0.0 0.0 0.00 0.00 0.00 93 1019.7
20260902122353 74 76 0.0 0.0 0.00 0.00 0.00 93 1019.8
20260902121848 74 75 0.0 0.0 0.00 0.00 0.00 94 1019.6
20260902121343 73 69 0.0 0.0 0.00 0.00 0.00 94 1019.6
20260902120838 73 69 0.0 0.0 0.00 0.00 0.00 95 1019.3
20260902120335 73 68 0.0 0.0 0.00 0.00 0.00 95 1019.6
20260902115834 73 67 0.0 0.0 0.00 0.00 0.00 95 1019.4
20260902115331 73 65 0.0 0.0 0.00 0.00 0.00 95 1019.4
20260902114827 73 65 0.0 0.0 0.00 0.00 0.00 95 1019.5
20260902114323 72 60 0.0 0.0 0.00 0.00 0.00 95 1019.3
20260902113823 72 61 0.0 0.0 0.00 0.00 0.00 95 1019.1
20260902113318 72 59 0.0 0.0 0.00 0.00 0.00 95 1019.1
20260902112817 72 85 0.0 0.0 0.00 0.00 0.00 95 1019.0
20260902112314 72 85 0.0 0.0 0.00 0.00 0.00 95 1018.8
20260902111809 73 85 0.0 0.0 0.00 0.00 0.00 95 1019.0
20260902111306 73 85 0.0 0.0 0.00 0.00 0.00 95 1018.8
20260902110801 73 85 0.0 0.0 0.00 0.00 0.00 94 1018.8
20260902110257 73 85 0.0 0.0 0.00 0.00 0.00 95 1018.9
20260902105756 73 85 0.0 0.0 0.00 0.00 0.00 95 1018.7
20260902105252 73 85 0.0 0.0 0.00 0.00 0.00 95 1018.8
20260902104747 73 85 0.0 0.0 0.00 0.00 0.00 95 1018.7
20260902104243 73 81 0.0 0.0 0.00 0.00 0.00 95 1018.6
20260902103743 73 81 0.0 0.0 0.00 0.00 0.00 95 1018.6
20260902103237 73 81 0.0 0.0 0.00 0.00 0.00 95 1018.5
20260902102733 73 81 0.0 0.0 0.00 0.00 0.00 95 1018.6
20260902102230 73 81 0.0 0.0 0.00 0.00 0.00 95 1018.6
20260902101725 72 81 0.0 0.0 0.00 0.00 0.00 95 1018.5
20260902101220 72 81 0.0 0.0 0.00 0.00 0.00 95 1018.6
20260902100719 73 81 0.0 0.0 0.00 0.00 0.00 95 1018.6
20260902100214 72 81 0.0 0.0 0.00 0.00 0.00 95 1018.6
20260902095713 72 81 0.0 0.0 0.00 0.00 0.00 95 1018.5
20260902095208 73 81 0.0 0.0 0.00 0.00 0.00 95 1018.5
20260902094703 73 81 0.0 0.0 0.00 0.00 0.00 94 1018.4
20260902094200 73 81 0.0 0.0 0.00 0.00 0.00 94 1018.4
20260902093658 73 81 0.0 0.0 0.00 0.00 0.00 94 1018.5
20260902093154 73 81 0.0 0.0 0.00 0.00 0.00 94 1018.6
20260902092649 73 81 0.0 0.0 0.00 0.00 0.00 94 1018.2
20260902092149 74 81 0.0 0.0 0.00 0.00 0.00 93 1018.4
20260902091643 74 81 0.0 0.0 0.00 0.00 0.00 93 1018.4
20260902091140 74 81 0.0 0.0 0.00 0.00 0.00 93 1018.4
20260902090636 74 82 0.0 0.0 0.00 0.00 0.00 92 1018.3
20260902090135 74 82 0.0 0.0 0.00 0.00 0.00 92 1018.3
20260902085630 74 82 0.0 0.0 0.00 0.00 0.00 92 1018.5
20260902085125 74 81 0.0 0.0 0.00 0.00 0.00 92 1018.2
20260902084621 75 81 0.0 0.0 0.00 0.00 0.00 92 1018.2
20260902084116 75 68 0.0 0.0 0.00 0.00 0.00 92 1018.3
20260902083612 75 86 0.0 0.0 0.00 0.00 0.00 91 1018.2
20260902083111 74 85 0.0 0.0 0.00 0.00 0.00 92 1018.1
20260902082606 74 85 0.0 0.0 0.00 0.00 0.00 92 1018.1
20260902082103 74 85 0.0 0.0 0.00 0.00 0.00 92 1018.0
20260902081559 74 85 0.0 0.0 0.00 0.00 0.00 93 1018.1
20260902081059 74 83 0.0 0.0 0.00 0.00 0.00 94 1018.0
20260902080554 74 83 0.0 0.0 0.00 0.00 0.00 94 1018.0
20260902080051 74 83 0.0 0.0 0.00 0.00 0.00 93 1018.0
20260902075550 73 83 0.0 0.0 0.00 0.00 0.00 94 1017.8
20260902075046 73 83 0.0 0.0 0.00 0.00 0.00 94 1018.0
20260902074541 73 83 0.0 0.0 0.00 0.00 0.00 94 1018.1
20260902074037 73 83 0.0 0.0 0.00 0.00 0.00 94 1017.8
20260902073532 73 83 0.0 0.0 0.00 0.00 0.00 94 1017.9
20260902073029 73 83 0.0 0.0 0.00 0.00 0.00 94 1017.9
20260902072524 73 83 0.0 0.0 0.00 0.00 0.00 94 1017.9
20260902072021 73 83 0.0 0.0 0.00 0.00 0.00 93 1017.8
20260902071520 73 83 0.0 0.0 0.00 0.00 0.00 93 1017.8
20260902071016 73 83 0.0 0.0 0.00 0.00 0.00 93 1018.1
20260902070511 73 83 0.0 0.0 0.00 0.00 0.00 93 1018.0
20260902070011 73 83 0.0 0.0 0.00 0.00 0.00 93 1017.8
20260902065500 73 83 0.0 0.0 0.00 0.00 0.00 93 1018.0
20260902064955 73 83 0.0 0.0 0.00 0.00 0.00 93 1018.0
20260902064451 74 83 0.0 0.0 0.00 0.00 0.00 93 1017.9
20260902063946 74 83 0.0 0.0 0.00 0.00 0.00 93 1018.1
20260902063445 74 83 0.0 0.0 0.00 0.00 0.00 93 1018.0
20260902062941 74 83 0.0 0.0 0.00 0.00 0.00 93 1017.8
20260902062440 74 83 0.0 0.0 0.00 0.00 0.00 93 1017.9
20260902061935 74 83 0.0 0.0 0.00 0.00 0.00 93 1018.1
20260902061430 74 83 0.0 0.0 0.00 0.00 0.00 93 1017.9
20260902060926 74 83 0.0 0.0 0.00 0.00 0.00 92 1018.0
20260902060422 74 83 0.0 0.0 0.00 0.00 0.00 92 1018.0
20260902055917 74 83 0.0 0.0 0.00 0.00 0.00 92 1018.2
20260902055414 74 83 0.0 0.0 0.00 0.00 0.00 92 1018.3
20260902054909 75 83 0.0 0.0 0.00 0.00 0.00 91 1018.3
20260902054404 75 83 0.0 0.0 0.00 0.00 0.00 91 1018.3
20260902053859 75 83 0.0 0.0 0.00 0.00 0.00 91 1018.1
20260902053354 75 83 0.0 0.0 0.00 0.00 0.00 90 1017.8
20260902052854 75 83 0.0 0.0 0.00 0.00 0.00 90 1018.2
20260902052349 75 83 0.0 0.0 0.00 0.00 0.00 90 1018.1
20260902051844 75 83 0.0 0.0 0.00 0.00 0.00 90 1018.3
20260902051343 75 83 0.0 0.0 0.00 0.00 0.00 90 1018.2
20260902050838 75 83 0.0 0.0 0.00 0.00 0.00 90 1018.2
20260902050337 75 83 0.0 0.0 0.00 0.00 0.00 90 1018.1
20260902045832 75 83 0.0 0.0 0.00 0.00 0.00 90 1018.2
20260902045328 75 83 0.0 0.0 0.00 0.00 0.00 90 1018.0
20260902044824 75 83 0.0 0.0 0.00 0.00 0.00 91 1018.1
20260902044320 75 83 0.0 0.0 0.00 0.00 0.00 90 1018.2
20260902043820 75 83 0.0 0.0 0.00 0.00 0.00 90 1017.9
20260902043315 76 83 0.0 0.0 0.00 0.00 0.00 90 1018.0
20260902042815 76 83 0.0 0.0 0.00 0.00 0.00 90 1018.3
20260902042310 76 83 0.0 0.0 0.00 0.00 0.00 89 1018.2
20260902041805 76 83 0.0 0.0 0.00 0.00 0.00 89 1018.0
20260902041305 76 83 0.0 0.0 0.00 0.00 0.00 88 1018.2
20260902040803 76 83 0.0 0.0 0.00 0.00 0.00 88 1018.1
20260902040259 76 83 0.0 0.0 0.00 0.00 0.00 88 1018.0
20260902035757 76 83 0.0 0.0 0.00 0.00 0.00 88 1018.0
20260902035254 76 83 0.0 0.0 0.00 0.00 0.00 88 1018.0
20260902034752 77 83 0.0 0.0 0.00 0.00 0.00 88 1018.1
20260902034248 77 83 0.0 0.0 0.00 0.00 0.00 88 1018.1
20260902033745 77 83 0.0 0.0 0.00 0.00 0.00 88 1017.9
20260902033240 77 83 0.0 0.0 0.00 0.00 0.00 87 1018.3
20260902032739 77 83 0.0 0.0 0.00 0.00 0.00 87 1018.2
20260902032234 77 83 0.0 0.0 0.00 0.00 0.00 87 1018.2
20260902031734 77 83 0.0 0.0 0.00 0.00 0.00 87 1018.0
20260902031229 77 83 0.0 0.0 0.00 0.00 0.00 86 1018.0
20260902030726 78 83 0.0 0.0 0.00 0.00 0.00 86 1017.9
20260902030226 78 83 0.0 0.0 0.00 0.00 0.00 86 1018.4
20260902025725 78 83 0.0 0.0 0.00 0.00 0.00 86 1018.2
20260902025220 78 83 0.0 0.0 0.00 0.00 0.00 85 1018.0
20260902024715 78 83 0.0 0.0 0.00 0.00 0.00 86 1018.3
20260902024210 78 83 0.0 0.0 0.00 0.00 0.00 85 1018.2
20260902023706 78 83 0.0 0.0 0.00 0.00 0.00 86 1018.2
20260902023201 78 83 0.0 0.0 0.00 0.00 0.00 86 1018.0
20260902022700 78 83 0.0 0.0 0.00 0.00 0.00 85 1018.1
20260902022156 78 83 0.0 0.0 0.00 0.00 0.00 85 1017.9
20260902021651 78 83 0.0 0.0 0.00 0.00 0.00 85 1018.2
20260902021146 79 83 0.0 0.0 0.00 0.00 0.00 85 1018.1
20260902020643 79 83 0.0 0.0 0.00 0.00 0.00 85 1018.0
20260902020138 79 83 0.0 0.0 0.00 0.00 0.00 85 1018.1
20260902015633 79 83 0.0 0.0 0.00 0.00 0.00 84 1018.0
20260902015130 79 83 0.0 0.0 0.00 0.00 0.00 84 1018.3
20260902014625 79 83 0.0 0.0 0.00 0.00 0.00 84 1017.9
20260902014121 79 83 0.0 0.0 0.00 0.00 0.00 84 1018.2
20260902013620 79 83 0.0 0.0 0.00 0.00 0.00 84 1018.0
20260902013115 80 83 0.0 0.0 0.00 0.00 0.00 83 1017.9
20260902012610 80 83 0.0 0.0 0.00 0.00 0.00 83 1018.0
20260902012106 80 83 0.0 0.0 0.00 0.00 0.00 82 1017.7
20260902011601 80 83 0.0 0.0 0.00 0.00 0.00 81 1017.8